JES104 SCFA-SCCF

Flight info

Callsign JES104
Flight time 0h 30m
Altitude 21000
Route TATIO4K TATIO TATIO4A
Aircraft A321/M-SDE3FGHIRWY/LB1

Departure

Time 2026-04-22 01:13
Airport Andrés Sabella Gálvez International Airport (SCFA)

Arrival

Time 2026-04-22 01:44
Airport El Loa Airport (SCCF)
Time Latitude Longitude Altitude Speed Heading
2026-04-22 01:08 -23.44228 -70.44290 465 ft 17 kts
2026-04-22 01:08 -23.44106 -70.44270 465 ft 17 kts
2026-04-22 01:09 -23.43990 -70.44256 465 ft 16 kts
2026-04-22 01:09 -23.43882 -70.44243 465 ft 15 kts
2026-04-22 01:09 -23.43783 -70.44231 465 ft 14 kts
2026-04-22 01:09 -23.43692 -70.44220 464 ft 12 kts
2026-04-22 01:10 -23.43610 -70.44210 464 ft 11 kts
2026-04-22 01:10 -23.43562 -70.44204 463 ft 10 kts
2026-04-22 01:10 -23.43473 -70.44196 465 ft 10 kts
2026-04-22 01:10 -23.43424 -70.44190 465 ft 11 kts
2026-04-22 01:11 -23.43341 -70.44212 465 ft 8 kts 322°
2026-04-22 01:11 -23.43299 -70.44249 464 ft 7 kts 319°
2026-04-22 01:11 -23.43272 -70.44294 464 ft 8 kts 278°
2026-04-22 01:11 -23.43312 -70.44353 464 ft 12 kts 216°
2026-04-22 01:12 -23.43373 -70.44374 464 ft 16 kts 186°
2026-04-22 01:12 -23.43564 -70.44397 465 ft 53 kts 187°
2026-04-22 01:12 -23.44142 -70.44470 466 ft 113 kts 186°
2026-04-22 01:12 -23.45094 -70.44587 467 ft 160 kts 186°
2026-04-22 01:13 -23.46254 -70.44736 848 ft 168 kts 186°
2026-04-22 01:13 -23.47421 -70.44864 1505 ft 170 kts 184°
2026-04-22 01:13 -23.48608 -70.44941 2131 ft 171 kts 181°
2026-04-22 01:13 -23.49812 -70.44978 2606 ft 177 kts 181°
2026-04-22 01:14 -23.51084 -70.45012 2964 ft 188 kts 180°
2026-04-22 01:14 -23.52449 -70.45091 3197 ft 207 kts 186°
2026-04-22 01:14 -23.53950 -70.45295 3337 ft 227 kts 187°
2026-04-22 01:14 -23.55603 -70.45539 3476 ft 253 kts 187°
2026-04-22 01:15 -23.57415 -70.45797 3934 ft 269 kts 187°
2026-04-22 01:15 -23.59295 -70.46046 4643 ft 275 kts 187°
2026-04-22 01:15 -23.61204 -70.46349 5333 ft 279 kts 197°
2026-04-22 01:15 -23.62916 -70.47327 6013 ft 280 kts 222°
2026-04-22 01:16 -23.64119 -70.48984 6692 ft 281 kts 245°
2026-04-22 01:16 -23.64621 -70.51030 7326 ft 282 kts 268°
2026-04-22 01:16 -23.64325 -70.53140 7960 ft 284 kts 291°
2026-04-22 01:16 -23.63283 -70.54936 8565 ft 288 kts 315°
2026-04-22 01:17 -23.61612 -70.56145 9177 ft 292 kts 340°
2026-04-22 01:17 -23.59606 -70.56537 9789 ft 295 kts 356°
2026-04-22 01:17 -23.57545 -70.56657 10387 ft 298 kts 357°
2026-04-22 01:17 -23.55470 -70.56772 11020 ft 299 kts 356°
2026-04-22 01:18 -23.53388 -70.56886 11679 ft 300 kts 356°
2026-04-22 01:18 -23.51298 -70.57003 12324 ft 302 kts 356°
2026-04-22 01:18 -23.49194 -70.57122 12985 ft 303 kts 356°
2026-04-22 01:18 -23.47082 -70.57200 13639 ft 305 kts
2026-04-22 01:19 -23.44942 -70.56887 14023 ft 319 kts 13°
2026-04-22 01:19 -23.42785 -70.56035 14143 ft 340 kts 22°
2026-04-22 01:19 -23.40593 -70.54982 14264 ft 357 kts 22°
2026-04-22 01:19 -23.38274 -70.53873 14551 ft 368 kts 22°
2026-04-22 01:20 -23.35908 -70.52748 15033 ft 373 kts 22°
2026-04-22 01:20 -23.33523 -70.51620 15557 ft 376 kts 21°
2026-04-22 01:20 -23.31119 -70.50484 16080 ft 378 kts 21°
2026-04-22 01:20 -23.28689 -70.49338 16600 ft 381 kts 21°
2026-04-22 01:21 -23.26241 -70.48184 17105 ft 384 kts 21°
2026-04-22 01:21 -23.23782 -70.47022 17603 ft 386 kts 20°
2026-04-22 01:21 -23.21335 -70.45871 18092 ft 389 kts 20°
2026-04-22 01:21 -23.18838 -70.44699 18530 ft 392 kts 20°
2026-04-22 01:22 -23.16327 -70.43515 18924 ft 394 kts 20°
2026-04-22 01:22 -23.13809 -70.42307 19312 ft 398 kts 23°
2026-04-22 01:22 -23.11433 -70.40695 19684 ft 406 kts 35°
2026-04-22 01:22 -23.09379 -70.38551 20050 ft 414 kts 47°
2026-04-22 01:23 -23.07745 -70.35948 20420 ft 422 kts 59°
2026-04-22 01:23 -23.06528 -70.33025 20790 ft 427 kts 64°
2026-04-22 01:23 -23.05358 -70.30052 21020 ft 429 kts 64°
2026-04-22 01:23 -23.04176 -70.27060 21076 ft 431 kts 63°
2026-04-22 01:24 -23.02992 -70.24067 21082 ft 432 kts 63°
2026-04-22 01:24 -23.01806 -70.21075 21080 ft 432 kts 63°
2026-04-22 01:24 -23.00618 -70.18078 21084 ft 432 kts 64°
2026-04-22 01:24 -22.99431 -70.15085 21085 ft 432 kts 64°
2026-04-22 01:25 -22.98260 -70.12129 21088 ft 432 kts 64°
2026-04-22 01:25 -22.97073 -70.09134 21087 ft 431 kts 64°
2026-04-22 01:25 -22.95886 -70.06144 21090 ft 431 kts 63°
2026-04-22 01:25 -22.94695 -70.03158 21092 ft 431 kts 63°
2026-04-22 01:26 -22.93505 -70.00178 21092 ft 431 kts 63°
2026-04-22 01:26 -22.92313 -69.97186 21092 ft 431 kts 64°
2026-04-22 01:26 -22.91126 -69.94197 21094 ft 431 kts 64°
2026-04-22 01:26 -22.89943 -69.91208 21094 ft 431 kts 64°
2026-04-22 01:27 -22.88756 -69.88219 21094 ft 431 kts 64°
2026-04-22 01:27 -22.87568 -69.85236 21095 ft 431 kts 64°
2026-04-22 01:27 -22.86377 -69.82253 21097 ft 431 kts 64°
2026-04-22 01:27 -22.85187 -69.79276 21097 ft 431 kts 64°
2026-04-22 01:28 -22.83995 -69.76294 21098 ft 430 kts 64°
2026-04-22 01:28 -22.82806 -69.73319 21098 ft 430 kts 64°
2026-04-22 01:28 -22.81611 -69.70332 21095 ft 430 kts 64°
2026-04-22 01:28 -22.80518 -69.67357 21099 ft 432 kts 70°
2026-04-22 01:29 -22.79790 -69.64190 21097 ft 433 kts 75°
2026-04-22 01:29 -22.79128 -69.60999 21095 ft 434 kts 75°
2026-04-22 01:29 -22.78465 -69.57814 21097 ft 434 kts 75°
2026-04-22 01:29 -22.77797 -69.54622 21098 ft 434 kts 75°
2026-04-22 01:30 -22.77129 -69.51434 21101 ft 434 kts 75°
2026-04-22 01:30 -22.76458 -69.48248 21103 ft 434 kts 75°
2026-04-22 01:30 -22.75788 -69.45061 21099 ft 434 kts 75°
2026-04-22 01:30 -22.75119 -69.41876 21107 ft 434 kts 75°
2026-04-22 01:31 -22.74449 -69.38689 21110 ft 434 kts 75°
2026-04-22 01:31 -22.73779 -69.35508 21113 ft 434 kts 75°
2026-04-22 01:31 -22.73105 -69.32325 21109 ft 433 kts 75°
2026-04-22 01:31 -22.72439 -69.29175 20875 ft 422 kts 75°
2026-04-22 01:32 -22.71804 -69.26160 20646 ft 411 kts 75°
2026-04-22 01:32 -22.71173 -69.23164 20416 ft 406 kts 75°
2026-04-22 01:32 -22.70548 -69.20200 20198 ft 403 kts 75°
2026-04-22 01:32 -22.69927 -69.17266 19895 ft 397 kts 74°
2026-04-22 01:33 -22.69309 -69.14361 19460 ft 395 kts 74°
2026-04-22 01:33 -22.68692 -69.11474 19027 ft 393 kts 74°
2026-04-22 01:33 -22.68117 -69.08588 18592 ft 391 kts 76°
2026-04-22 01:33 -22.67607 -69.05677 17729 ft 399 kts 78°
2026-04-22 01:34 -22.67132 -69.02720 17215 ft 397 kts 78°
2026-04-22 01:34 -22.66680 -68.99790 16767 ft 393 kts 79°
2026-04-22 01:34 -22.66230 -68.96887 16316 ft 389 kts 79°
2026-04-22 01:34 -22.65772 -68.94016 15865 ft 386 kts 79°
2026-04-22 01:35 -22.65306 -68.91160 15417 ft 382 kts 79°
2026-04-22 01:35 -22.64837 -68.88340 14964 ft 379 kts 79°
2026-04-22 01:35 -22.64367 -68.85545 14510 ft 376 kts 79°
2026-04-22 01:35 -22.63899 -68.82774 14076 ft 372 kts 79°
2026-04-22 01:36 -22.63442 -68.80072 13954 ft 358 kts 79°
2026-04-22 01:36 -22.63005 -68.77497 13795 ft 346 kts 79°
2026-04-22 01:36 -22.62583 -68.74999 13637 ft 327 kts 79°
2026-04-22 01:36 -22.62184 -68.72644 13478 ft 309 kts 79°
2026-04-22 01:37 -22.61606 -68.70485 13332 ft 291 kts 61°
2026-04-22 01:37 -22.60371 -68.68849 13201 ft 279 kts 38°
2026-04-22 01:37 -22.58643 -68.67905 12766 ft 282 kts 12°
2026-04-22 01:37 -22.56684 -68.67685 12349 ft 284 kts
2026-04-22 01:38 -22.54708 -68.67549 11929 ft 285 kts
2026-04-22 01:38 -22.52775 -68.67926 11523 ft 285 kts 331°
2026-04-22 01:38 -22.51344 -68.69359 11136 ft 283 kts 298°
2026-04-22 01:38 -22.50764 -68.71223 10823 ft 280 kts 278°
2026-04-22 01:39 -22.50740 -68.71381 10806 ft 278 kts 278°
2026-04-22 01:39 -22.50609 -68.72993 10482 ft 272 kts 271°
2026-04-22 01:39 -22.50597 -68.73841 10346 ft 268 kts 270°
2026-04-22 01:40 -22.50598 -68.74133 10300 ft 266 kts 269°
2026-04-22 01:40 -22.50603 -68.74603 10237 ft 263 kts 269°
2026-04-22 01:41 -22.50618 -68.75513 10132 ft 242 kts 268°
2026-04-22 01:41 -22.50679 -68.77183 10168 ft 212 kts 267°
2026-04-22 01:41 -22.50765 -68.78774 9586 ft 214 kts 266°
2026-04-22 01:41 -22.50823 -68.80396 9025 ft 215 kts 269°
2026-04-22 01:42 -22.50784 -68.81950 8847 ft 198 kts 274°
2026-04-22 01:42 -22.50656 -68.83382 8627 ft 185 kts 277°
2026-04-22 01:42 -22.50472 -68.84727 8197 ft 179 kts 279°
2026-04-22 01:42 -22.50288 -68.86019 7901 ft 165 kts 276°
2026-04-22 01:43 -22.50207 -68.87181 7750 ft 147 kts 272°
2026-04-22 01:43 -22.50112 -68.88200 7682 ft 128 kts 273°
2026-04-22 01:43 -22.50079 -68.89102 7623 ft 111 kts 271°
2026-04-22 01:43 -22.50037 -68.89885 7569 ft 97 kts 273°
2026-04-22 01:44 -22.50009 -68.90316 7540 ft 45 kts 275°
2026-04-22 01:44 -22.49992 -68.90656 7517 ft 46 kts 271°
2026-04-22 01:44 -22.49965 -68.90931 7494 ft 25 kts 279°
2026-04-22 01:44 -22.49925 -68.91116 7480 ft 23 kts 300°
2026-04-22 01:45 -22.49835 -68.91251 7472 ft 14 kts 310°
2026-04-22 01:45 -22.49778 -68.91230 7470 ft 10 kts 71°
2026-04-22 01:45 -22.49779 -68.91145 7479 ft 13 kts 95°
2026-04-22 01:45 -22.49789 -68.91029 7488 ft 28 kts 96°
2026-04-22 01:46 -22.49824 -68.90481 7531 ft 120 kts 93°
2026-04-22 01:46 -22.49894 -68.89440 7650 ft 180 kts 94°